Regional Weather Roundup
Issued by NWS

Home | Current Version | Previous Version | Graphics & Text | Print | Product List | Glossary On
Versions: 1 2 3 4 5 6 7 8 9 10 11 12 13 14 15 16 17 18 19 20 21 22 23 24 25 26 27 28 29 30 31 32 33 34 35 36 37 38 39 40 41 42 43 44 45 46 47 48 49 50
000
ASUS45 KSLC 271210
RWRUT

UTAH REGIONAL WEATHER ROUNDUP
NATIONAL WEATHER SERVICE SALT LAKE CITY UT
600 AM MDT MON JUL 27 2015

UTZ001>011-023>025-271300-

NORTHERN UTAH

CITY           SKY/WX    TMP DP  RH WIND       PRES   REMARKS
BRIGHAM CITY   CLEAR     74  32  22 S8        29.79R
HILL AFB       CLEAR     73  33  22 SW10      29.82R
LOGAN            N/A    N/A N/A N/A MISG      29.80R
OGDEN          CLEAR     74  32  21 SW10      29.79R
PROVO AIRPORT  CLEAR     66  36  32 SE8       29.86S
SALT LAKE CITY PTCLDY    77  35  21 S20       29.78S
VERNAL         PTCLDY    63  45  51 W5        29.94R
WENDOVER       CLEAR     70  37  30 N13G24    29.84R
HEBER CITY     CLEAR     55  34  44 CALM      29.92S
WEST JORDAN    CLEAR     72  30  21 SE14      29.82F

$$

UTZ012>022-026-027-271300-

SOUTHERN/CENTRAL UTAH

CITY           SKY/WX    TMP DP  RH WIND       PRES   REMARKS
BLANDING       MOCLDY    65  49  54 E3        30.14R
BRYCE CANYON   CLEAR     40  30  67 VRB3      30.16S
CEDAR CITY     CLEAR     66  22  18 S14       29.98S
DELTA          CLEAR     61  27  27 S12       29.89R
HANKSVILLE     CLEAR     63  37  39 CALM      29.92R
MILFORD        CLEAR     64  25  22 SW18      29.92S
MOAB/CYNLANDS  CLEAR     74  48  39 S7        29.89R
PRICE          CLEAR     61  39  44 CALM      29.98S
ST GEORGE      SUNNY     75  34  22 S7        29.85R
KANAB          CLEAR     55  37  50 N5        30.06R

$$

REGIONAL REPORTS     COLORADO/ARIZONA

CITY           SKY/WX    TMP DP  RH WIND       PRES   REMARKS
CRAIG, CO      CLEAR     52  42  69 CALM      30.06R
GRAND JUNCTION PTCLDY    70  47  43 E17       29.94R
RIFLE          CLEAR     58  46  64 CALM      30.02R
MONTROSE       MOCLDY    67  48  50 E7        30.06S
CORTEZ         PTCLDY    61  49  64 N3        30.08S
PAGE, AZ       CLEAR     75  35  23 SW6       29.94R
GRAND CANYON   CLEAR     43  30  60 CALM      30.16R
KINGMAN        CLEAR     65  25  22 E6        29.91R
FLAGSTAFF      CLEAR     47  34  60 CALM      30.20S

$$

REGIONAL REPORTS    NEVADA/IDAHO/WYOMING

CITY           SKY/WX    TMP DP  RH WIND       PRES   REMARKS
LAS VEGAS, NV  CLEAR     82  41  23 S15G24    29.73R
ELY            CLEAR     61  24  24 W12       30.00R
ELKO           LGT RAIN  60  45  57 NE3       29.99R
POCATELLO, ID  CLEAR     58  43  57 SW22G28   29.90R
BURLEY         PTCLDY    59  40  49 W22G33    29.92R
EVANSTON, WY   PTCLDY    60  25  26 SW13      29.99F
ROCK SPRINGS   CLEAR     65  40  39 SE9       30.00S
KEMMERER       PTCLDY    59  23  25 S7        30.01S

$$


USA.gov is the U.S. government's official web portal to all federal, state and local government web resources and services.